Location: ???????
(52.7833°N, 53.6000°E)
Time: 03:34:03
(UTC+00:00)

Daily predictions for brighter satellites

Satellite Brightness Start Highest point End
(mag) Time Altitude Azimuth Time Altitude Azimuth Time Altitude Azimuth
Cosmos 2297 Rocket 2.9 00:46:28 48° NNE 00:46:28 48° NNE 00:50:28 10° NNE
Cosmos 2227 Rocket 2.7 00:50:12 53° NE 00:50:12 53° NE 00:54:30 10° NNE
CZ-4C R/B 2.8 00:56:38 71° SW 00:56:43 71° SW 01:04:46 10° SSE
USA 234 3.5 00:54:01 10° ENE 01:00:31 63° SE 01:02:14 48° SSW
Cosmos 2219 4.1 01:03:58 36° N 01:03:58 36° N 01:07:30 10° NNE
CZ-2C R/B 4.1 00:58:26 10° NNE 01:00:11 23° NNE 01:00:11 23° NNE
Cosmos 1464 Rocket 3.9 00:58:39 10° S 01:04:50 81° E 01:11:01 10° NNE
Cosmos 1943 3.7 01:05:57 43° N 01:07:23 54° NE 01:12:52 10° SE
Cosmos 407 Rocket 4.2 01:09:22 44° S 01:09:22 44° S 01:13:00 10° SSE
ATLAS CENTAUR R/B 3.7 01:08:55 18° NNE 01:08:55 18° NNE 01:11:17 10° NE
SKYMED 2 4.3 01:06:42 10° SSE 01:10:11 51° ESE 01:10:11 51° ESE
Cosmos 1140 Rocket 3.5 01:12:30 75° SE 01:12:30 75° SE 01:17:17 10° SSE
Cosmos 2082 Rocket 4.4 01:13:23 12° N 01:14:23 12° N 01:16:45 10° NNE
SL-16 R/B 3.7 01:23:14 22° SSW 01:23:14 22° SSW 01:25:22 10° S
NOSS 2-1 (E) 4.1 01:20:29 72° WNW 01:21:06 85° SW 01:28:18 10° SE
Cosmos 1023 Rocket 4.4 01:24:17 72° SSW 01:24:17 72° SSW 01:29:10 10° SSE
Cosmos 1072 Rocket 4.3 01:22:28 39° SSW 01:24:47 71° WNW 01:30:58 10° N
Cosmos 1603 3.7 01:25:07 52° NNW 01:26:37 85° ENE 01:32:22 10° SSE
Okean 1-7 3.6 01:29:25 32° N 01:31:16 58° ENE 01:35:36 10° SSE
Meteor 1-27 Rocket 4.0 01:33:44 51° WSW 01:33:44 51° WSW 01:38:49 10° S
Nadezhda 4 Rocket 3.8 01:29:43 20° NNW 01:34:13 70° W 01:40:20 10° S
Cosmos 2082 3.5 01:33:27 59° WSW 01:34:24 72° WNW 01:40:03 10° NNE
Cosmos 1933 Rocket 3.6 01:31:10 10° S 01:35:29 76° E 01:39:51 10° NNE
Cosmos 1513 Rocket 4.4 01:31:17 10° SSW 01:37:39 65° WNW 01:44:02 10° N
ATLAS 5 CENTAUR R/B 1.7 01:38:05 63° NNW 01:38:05 63° NNW 01:42:55 10° NE
Cosmos 1461 3.4 01:44:30 47° SSW 01:44:30 47° SSW 01:48:01 10° SSE
STARLINK 1050 4.0 01:47:34 44° SSE 01:47:34 44° SSE 01:50:14 10° SE
Okean 1 3.8 01:46:49 26° N 01:48:51 60° ENE 01:52:46 10° SSE
ALOS 2.8 01:44:29 10° NNE 01:49:09 60° E 01:53:46 10° S
STARLINK 1055 3.9 01:50:14 46° SSE 01:50:14 46° SSE 01:53:00 10° SE
BREEZE-M DEB (TANK) 4.0 01:51:39 13° SSE 01:51:39 13° SSE 01:52:07 10° SE
Cosmos 1607 3.9 01:48:43 43° W 01:50:35 61° NW 01:56:44 10° NE
STARLINK 1022 3.8 01:52:09 46° SSE 01:52:09 46° SSE 01:54:59 10° SE
Helios 1A Rocket 4.2 01:49:20 10° NNE 01:53:12 41° E 01:57:01 10° S
Cosmos 1624 Rocket 4.0 01:48:11 10° SSW 01:53:32 89° WNW 01:58:56 10° NNE
STARLINK 1042 3.7 01:55:26 47° S 01:55:26 47° S 01:58:23 10° SE
Cosmos 2026 Rocket 3.9 01:50:27 10° N 01:56:37 86° E 02:02:51 10° S
Meteor 1-18 Rocket 4.2 01:51:31 10° NNW 01:57:08 82° ENE 02:02:42 10° SSE
STARLINK 1056 3.7 01:58:11 47° S 01:58:11 47° S 02:01:13 10° SE
Cosmos 2084 Rocket 4.3 01:58:18 35° SW 01:58:18 35° SW 02:01:56 10° SSE
Cosmos 2056 Rocket 3.3 01:53:34 10° SSW 01:58:41 84° WNW 02:03:51 10° NNE
COSMO-SKYMED 1 2.8 01:54:48 10° S 01:58:43 48° WSW 01:58:43 48° WSW
Cosmos 676 Rocket 4.1 01:58:13 43° WNW 01:59:29 54° WSW 02:04:36 10° S
Okean O Rocket 2.4 01:55:34 10° NNE 01:59:53 54° E 02:04:11 10° S
CZ-4B DEB 4.3 01:55:08 10° NNE 02:00:41 78° ESE 02:06:14 10° SSW
STARLINK 1054 3.7 02:00:56 46° SSW 02:00:56 46° SSW 02:04:03 10° SE
STARLINK 1062 3.7 02:03:30 45° SSW 02:03:30 45° SSW 02:06:43 10° SE
Cosmos 2242 Rocket 4.4 02:06:31 33° WSW 02:06:31 33° WSW 02:09:37 10° SSW
STARLINK 1053 3.7 02:06:28 44° SSW 02:06:29 44° SSW 02:09:47 10° SE
Cosmos 1470 Rocket 3.9 02:07:59 42° WNW 02:07:59 42° WNW 02:11:58 10° N
STARLINK 1061 3.7 02:08:54 42° SSW 02:09:01 43° SSW 02:12:18 10° SE
USA 116 4.1 02:04:42 10° S 02:09:04 62° W 02:12:29 19° NNW
Cosmos 1703 Rocket 3.6 02:07:45 36° NW 02:09:15 54° W 02:13:34 10° S
Cosmos 1954 Rocket 4.2 02:08:51 36° WNW 02:10:28 47° WSW 02:15:30 10° S
STARLINK 1067 3.7 02:11:39 41° SW 02:11:52 41° SSW 02:15:08 10° SE
STARLINK 1058 3.8 02:14:19 39° SW 02:14:38 40° SSW 02:17:53 10° SE
Cosmos 2263 Rocket 2.8 02:09:42 10° SSW 02:15:09 59° ESE 02:20:38 10° NE
Cosmos 1655 Rocket 4.4 02:09:32 10° N 02:15:45 64° ENE 02:21:55 10° SSE
Cosmos 1602 4.1 02:12:18 10° S 02:16:05 64° E 02:19:55 10° NNE
Cosmos 1634 Rocket 4.0 02:10:03 10° S 02:16:16 88° E 02:22:30 10° N
SL-24 R/B 4.0 02:12:15 10° SSE 02:16:42 89° ENE 02:20:37 12° NNW
Cosmos 1340 3.8 02:13:17 10° S 02:16:53 46° E 02:20:31 10° NNE
Cosmos 2034 Rocket 4.2 02:11:04 10° SW 02:17:09 48° WNW 02:23:19 10° N
STARLINK 1043 3.8 02:17:02 37° SW 02:17:27 39° SSW 02:20:41 10° SE
Cosmos 1484 Rocket 3.0 02:14:46 10° N 02:18:35 44° WNW 02:22:19 10° SW
Cosmos 1420 Rocket 4.2 02:14:32 10° SSW 02:19:44 75° ESE 02:24:56 10° NNE
STARLINK 1065 3.9 02:19:40 35° SW 02:20:11 37° SSW 02:23:24 10° SE
Cosmos 1627 Rocket 4.4 02:14:14 10° NNW 02:20:22 64° W 02:26:35 10° S
STARLINK 1027 3.9 02:20:36 29° SSW 02:20:36 29° SSW 02:23:10 10° SSE
STARLINK 1028 4.0 02:20:50 29° SSW 02:20:50 29° SSW 02:23:23 10° SSE
STARLINK 1021 4.0 02:21:03 29° SSW 02:21:03 29° SSW 02:23:36 10° SSE
STARLINK 1034 4.0 02:21:06 29° SSW 02:21:06 29° SSW 02:23:44 10° SSE
STARLINK 1019 3.9 02:21:12 29° SSW 02:21:13 29° SSW 02:23:51 10° SSE
STARLINK 1012 4.0 02:21:28 29° SSW 02:21:28 29° SSW 02:24:02 10° SSE
STARLINK 1010 4.0 02:21:40 29° SSW 02:21:40 29° SSW 02:24:15 10° SSE
PSLV R/B 4.1 02:18:00 10° N 02:21:54 45° WNW 02:25:50 10° SW
STARLINK 1026 4.0 02:21:55 28° SSW 02:21:55 28° SSW 02:24:30 10° SSE
STARLINK 1013 4.0 02:22:09 28° SSW 02:22:09 28° SSW 02:24:44 10° SSE
STARLINK 1009 4.0 02:22:20 28° SSW 02:22:21 28° SSW 02:24:56 10° SSE
STARLINK 1015 4.0 02:22:33 28° SSW 02:22:35 28° SSW 02:25:10 10° SSE
STARLINK 1052 4.0 02:22:35 28° SSW 02:22:37 28° SSW 02:25:13 10° SSE
STARLINK 1016 4.0 02:22:46 28° SSW 02:22:48 28° SSW 02:25:23 10° SSE
STARLINK 1008 4.0 02:23:00 28° SSW 02:23:02 28° SSW 02:25:36 10° SSE
STARLINK 1063 4.0 02:22:32 33° SW 02:23:09 36° SSW 02:26:21 10° SE
STARLINK 1014 4.0 02:23:13 28° SSW 02:23:16 28° SSW 02:25:50 10° SSE
STARLINK 1025 4.0 02:23:26 28° SSW 02:23:29 28° SSW 02:26:03 10° SSE
STARLINK 1017 4.0 02:23:31 28° SSW 02:23:34 28° SSW 02:26:09 10° SSE
STARLINK 1023 4.0 02:23:52 28° SSW 02:23:56 28° SSW 02:26:29 10° SSE
STARLINK 1007 4.0 02:24:04 28° SSW 02:24:08 28° SSW 02:26:42 10° SSE
Cosmos 2227 4.3 02:18:35 10° SSW 02:24:21 85° ESE 02:30:11 10° NNE
STARLINK 1048 4.0 02:24:18 27° SSW 02:24:23 27° SSW 02:26:56 10° SSE
STARLINK 1049 4.0 02:24:30 27° SW 02:24:35 27° SSW 02:27:09 10° SSE
STARLINK 1051 4.0 02:24:43 27° SW 02:24:49 27° SSW 02:27:23 10° SSE
STARLINK 1037 4.0 02:24:56 27° SW 02:25:03 27° SSW 02:27:36 10° SSE
STARLINK 1059 4.0 02:25:09 27° SW 02:25:16 27° SSW 02:27:49 10° SSE
STARLINK 1040 4.1 02:25:19 26° SW 02:25:25 26° SSW 02:27:56 10° SSE
STARLINK 1057 4.0 02:25:22 27° SW 02:25:30 27° SSW 02:28:03 10° SSE
STARLINK 1064 4.0 02:25:08 31° WSW 02:25:51 35° SSW 02:29:01 10° SE
STARLINK 1068 4.0 02:25:48 27° SW 02:25:56 27° SSW 02:28:29 10° SSE
STARLINK 1029 4.0 02:26:01 27° SW 02:26:09 27° SSW 02:28:42 10° SSE
STARLINK 1060 4.0 02:26:15 27° SW 02:26:23 27° SSW 02:28:56 10° SSE
Cosmos 1741 Rocket 3.9 02:22:27 18° NNW 02:26:26 77° WSW 02:31:38 10° SSE
STARLINK 1030 4.0 02:26:24 27° SW 02:26:36 27° SSW 02:29:11 10° SSE
STARLINK 1020 4.0 02:26:41 26° SW 02:26:51 27° SSW 02:29:23 10° SSE
STARLINK 1033 4.0 02:27:19 26° SW 02:27:30 26° SSW 02:30:02 10° SSE
STARLINK 1031 4.0 02:27:32 26° SW 02:27:44 26° SSW 02:30:15 10° SSE
STARLINK 1024 4.1 02:27:42 26° SW 02:27:56 27° SSW 02:30:30 10° SSE
STARLINK 1035 4.1 02:27:58 26° SW 02:28:11 26° SSW 02:30:43 10° SSE
STARLINK 1032 4.1 02:28:11 26° SW 02:28:24 26° SSW 02:30:55 10° SSE
STARLINK 1011 4.1 02:28:22 26° SW 02:28:37 26° SSW 02:31:10 10° SSE
STARLINK 1041 4.1 02:27:52 29° WSW 02:28:40 34° SSW 02:31:50 10° SE
STARLINK 1036 4.1 02:28:37 26° SW 02:28:51 26° SSW 02:31:22 10° SSE
STARLINK 1047 4.1 02:29:03 25° SW 02:29:18 26° SSW 02:31:48 10° SSE
Cosmos 2297 Rocket 3.2 02:28:18 24° WNW 02:29:33 27° NW 02:34:19 10° NNE
Cosmos 1869 Rocket 3.4 02:26:18 10° SSW 02:30:37 80° W 02:35:00 10° N
STARLINK 1038 4.2 02:30:37 28° WSW 02:31:32 33° SSW 02:34:39 10° SE
SJ-7 4.5 02:28:26 10° NNE 02:32:30 79° ESE 02:36:30 10° S
Cosmos 2227 Rocket 3.2 02:32:03 24° WNW 02:33:34 27° NW 02:38:21 10° NNE
CZ-4B R/B 3.2 02:28:15 10° NNE 02:33:50 88° WNW 02:39:28 10° SSW
STARLINK 1046 4.2 02:33:21 26° WSW 02:34:22 31° SSW 02:37:28 10° SSE
Okean 3 3.4 02:31:10 10° N 02:35:23 86° E 02:39:35 10° S
STARLINK 1039 4.3 02:36:06 25° WSW 02:37:12 30° SSW 02:40:17 10° SSE
FENGYUN 3A 3.6 02:32:08 10° N 02:37:30 64° WNW 02:42:48 10° SSW
Meteor 1-14 Rocket 4.3 02:32:11 10° SSW 02:38:09 86° WNW 02:44:11 10° NNE
STARLINK 1045 4.3 02:37:01 24° WSW 02:38:09 30° SSW 02:41:14 10° SSE
Cosmos 1092 Rocket 4.4 02:33:13 10° NNW 02:38:52 38° W 02:44:27 10° SSW
SJ-12 4.3 02:36:29 10° N 02:40:21 39° WNW 02:44:12 10° SW
CZ-2C R/B 3.8 02:37:38 10° NNW 02:39:33 17° NW 02:39:33 17° NW
Meteor 1-25 Rocket 4.2 02:36:36 10° SSW 02:42:08 60° WNW 02:47:47 10° N
PAYLOAD B 4.2 02:36:50 10° N 02:42:16 62° WNW 02:47:43 10° SSW
USA 234 3.3 02:37:10 10° ENE 02:43:40 72° NNW 02:49:35 13° W
NOAA 6 3.9 02:39:15 10° NNE 02:44:21 70° WNW 02:49:27 10° SSW
CZ-4C R/B 4.1 02:41:51 18° W 02:44:35 22° WSW 02:50:23 10° SSW
Cosmos 1452 Rocket 3.5 02:40:08 10° SSW 02:45:25 88° WNW 02:50:46 10° NNE
SOZ 4.4 02:44:58 27° WSW 02:45:45 39° SSW 02:47:44 10° SE
Cosmos 1674 Rocket 4.0 02:43:29 10° N 02:47:50 63° ENE 02:52:08 10° SSE
Cosmos 1850 Rocket 4.2 02:43:30 14° NW 02:47:55 53° WSW 02:53:05 10° S
ATLAS CENTAUR R/B 2.6 02:45:07 14° NNW 02:48:21 34° NNE 02:52:09 10° E
Timation 1 Rocket 4.5 02:44:00 10° SSW 02:49:58 81° ESE 02:55:59 10° NE
Cosmos 1943 3.9 02:47:48 18° NW 02:51:14 34° WSW 02:56:13 10° S
ADEOS Rocket 3.2 02:48:08 10° SSE 02:55:10 82° WSW 03:01:30 10° NNW
Cosmos 1346 Rocket 2.6 02:51:29 10° SSW 02:55:21 75° WNW 02:59:16 10° N
Meteor 1-19 Rocket 4.4 02:52:31 10° NNW 02:57:45 47° W 03:03:03 10° SSW
Cosmos 2082 Rocket 4.0 02:56:16 10° NNW 03:00:45 23° NNE 03:05:10 10° E
H-2A R/B 2.6 03:02:42 10° NNE 03:06:27 84° WNW 03:10:12 10° SSW
CZ-4 R/B 3.6 03:03:53 10° NE 03:07:15 27° E 03:10:37 10° SSE
Okean 1-7 4.4 03:06:20 14° NW 03:08:25 19° W 03:11:31 10° SW
Cosmos 1378 Rocket 3.8 03:04:21 10° N 03:08:46 74° ENE 03:13:12 10° SSE
YAOGAN 6 4.2 03:06:23 10° NNE 03:09:53 40° E 03:13:23 10° SSE
Meteor 2-4 Rocket 3.8 03:07:20 10° NNW 03:12:46 54° W 03:18:02 10° S
CZ-2C R/B 3.8 03:08:35 10° S 03:13:17 69° WSW 03:18:05 10° NNW
Meteor 1-5 Rocket 4.5 03:08:49 10° S 03:14:46 82° E 03:20:39 10° NNE
Cosmos 371 Rocket 3.8 03:12:56 10° SSW 03:17:43 65° ESE 03:22:34 10° NNE
SMAP 3.0 03:14:06 10° NNE 03:18:47 75° WNW 03:23:25 10° SSW
Cosmos 405 3.0 03:15:53 10° NNW 03:19:25 60° W 03:22:54 10° S
Cosmos 2180 Rocket 4.5 03:15:04 10° SSW 03:21:09 65° WNW 03:27:19 10° N
ATLAS 5 CENTAUR R/B 3.0 03:19:38 12° WNW 03:23:26 28° NNW 03:28:05 10° NE
CZ-2C R/B 3.6 03:18:40 10° SE 03:23:42 45° ENE 03:28:40 10° N
NOAA 12 4.3 03:19:12 10° NNE 03:24:29 76° ESE 03:29:43 10° S
Cosmos 2266 Rocket 4.0 03:18:35 10° NNW 03:24:50 67° W 03:30:55 10° S
ALOS 3.3 03:22:32 10° N 03:26:14 24° WNW 03:29:55 10° WSW
Cosmos 968 Rocket 4.3 03:22:08 10° NNW 03:27:11 49° ENE 03:32:10 10° SE
Helios 1A Rocket 3.9 03:24:51 10° N 03:28:13 25° WNW 03:31:33 10° WSW
CORIOLIS 4.2 03:25:13 10° NNE 03:30:40 81° WNW 03:36:04 10° SSW
Feng Yun 1-1 Rocket 4.2 03:25:55 10° NNE 03:31:27 75° WNW 03:37:05 10° SSW
Cosmos 44 3.8 03:27:24 10° SSW 03:32:02 60° SE 03:36:28 10° NE
Cosmos 1066 Rocket 4.3 03:27:38 10° NNW 03:33:21 83° ENE 03:38:51 10° SSE
Cosmos 1908 Rocket 4.1 03:30:21 10° S 03:34:47 66° E 03:39:15 10° NNE
Okean O Rocket 2.7 03:32:29 10° N 03:35:58 24° WNW 03:39:26 10° WSW
Meteor 1-13 Rocket 4.5 03:30:50 10° NNW 03:36:06 47° W 03:41:24 10° SSW
IRIDIUM 104 4.4 03:32:16 10° N 03:37:27 64° W 03:42:35 10° S
USA 81 4.1 03:32:43 10° N 03:37:59 71° W 03:43:13 10° S
Cosmos 1331 Rocket 4.0 03:34:56 10° SSW 03:40:06 90° SE 03:45:20 10° NNE
BREEZE-M DEB (TANK) 3.0 03:35:36 10° W 03:40:46 52° S 03:43:07 10° ESE
Okean 2 4.3 03:42:10 10° N 03:46:11 51° ENE 03:50:10 10° SSE
